User: anonymous   Login
Location: Lecco
(45.8566°N, 9.3977°E)
Time: 06:21:36
(UTC+02:00)
Language:

Vanguard 2 - Orbit

View from above orbital plane
View from above orbital plane
View from above satellite
View from above satellite

Ground track
Ground track

The orbit data is extracted from the following two-line orbital elements,

1    11U 59001A   19199.18054284  .00000008  00000-0 -46679-5 0  9994
2    11  32.8654 234.0854 1467922 158.8515 207.9746 11.85613854576917
Epoch (UTC): 18 July 2019 04:19:58
Eccentricity: 0.1467922
inclination: 32.8654°
perigee height: 553 km
apogee height: 2938 km
right ascension of ascending node: 234.0854°
argument of perigee: 158.8515°
revolutions per day: 11.85613854
mean anomaly at epoch: 207.9746°
orbit number at epoch: 57691

The dashed part of the orbit path shows where the satellite is in the earth's shadow,  

DLR